Weather History for Wheeling, WV

Change the Weather History Date:

Wednesday, March 20, 2013

  Actual Average Record
Temperature  
Mean Temperature 32 °F 41 °F  
Max Temperature 40 °F 51 °F 80 °F (2012)
Min Temperature 24 °F 32 °F 19 °F (1949)
Degree Days  
Heating Degree Days 33 24  
Month to date heating degree days 574 540  
Since 1 July heating degree days 4586 4707  
Cooling Degree Days 0    
Month to date cooling degree days 0  
Year to date cooling degree days 0  
Moisture  
Dew Point 14 °F    
Average Humidity 53    
Maximum Humidity 74    
Minimum Humidity 32    
Precipitation  
Precipitation 0.00 in 0.10 in 0.48 in (2002)
Month to date precipitation 1.00 1.88  
Sea Level Pressure  
Sea Level Pressure 29.94 in    
Wind  
Wind Speed 13 mph (West)    
Max Wind Speed 29 mph    
Max Gust Speed 41 mph    
Visibility 10 miles    
Events      
T = Trace of Precipitation, MM = Missing Value Source: NWS Daily Summary

Daily Weather History Graph

Daily Weather History Graph

Search for Another Location

Airport:

Trip Planner

Search our weather history database for the weather conditions in past years. The results will help you decide how hot, cold, wet, or windy it might be!

Date:

Astronomy

Mar. 20, 2013 Rise Set
Actual Time 7:25 AM EDT 7:34 PM EDT
Civil Twilight 6:58 AM EDT 8:02 PM EDT
Nautical Twilight 6:26 AM EDT 8:33 PM EDT
Astronomical Twilight 5:54 AM EDT 9:06 PM EDT
Moon 1:08 PM EDT (3/20) 3:04 AM EDT (3/20)
Length of Visible Light 13h 03m
Length of Day
12h 09m
First Quarter, 59% of the Moon is Illuminated
Mar 20
First Quarter
Mar 27
Full
Apr 3
Last Quarter
Apr 10
New
Apr 18
First Quarter

Hourly Weather History & Observations

Time (EDT) Temp. Windchill Dew Point Humidity Pressure Visibility Wind Dir Wind Speed Gust Speed Precip Events Conditions
12:53 AM 30.9 °F 21.2 °F 14.0 °F 50% 30.00 in 10.0 mi West 12.7 mph 21.9 mph N/A   Clear
1:53 AM 30.0 °F 19.5 °F 14.0 °F 51% 30.00 in 10.0 mi West 13.8 mph - N/A   Clear
2:53 AM 30.0 °F 21.7 °F 14.0 °F 51% 30.00 in 10.0 mi West 9.2 mph - N/A   Clear
3:53 AM 28.9 °F 19.2 °F 14.0 °F 54% 29.99 in 10.0 mi West 11.5 mph 17.3 mph N/A   Clear
4:53 AM 28.9 °F 21.1 °F 14.0 °F 54% 29.99 in 10.0 mi WSW 8.1 mph - N/A   Clear
5:53 AM 28.0 °F 20.8 °F 14.0 °F 56% 29.99 in 10.0 mi WSW 6.9 mph - N/A   Clear
6:53 AM 27.0 °F 19.5 °F 14.0 °F 58% 30.00 in 10.0 mi WSW 6.9 mph - N/A   Clear
7:53 AM 27.0 °F 20.5 °F 14.0 °F 58% 30.00 in 10.0 mi SW 5.8 mph - N/A   Scattered Clouds
8:53 AM 28.9 °F 20.4 °F 15.1 °F 56% 29.99 in 10.0 mi SW 9.2 mph - N/A   Partly Cloudy
9:53 AM 32.0 °F 22.1 °F 12.0 °F 44% 29.97 in 10.0 mi SW 13.8 mph 19.6 mph N/A   Clear
11:53 AM 35.1 °F 25.9 °F 12.9 °F 40% 29.94 in 10.0 mi West 13.8 mph 27.6 mph N/A   Mostly Cloudy
12:53 PM 36.0 °F 27.5 °F 17.1 °F 46% 29.91 in 10.0 mi WSW 12.7 mph 23.0 mph N/A   Overcast
1:53 PM 37.9 °F 27.1 °F 15.1 °F 39% 29.88 in 10.0 mi West 23.0 mph 33.4 mph N/A   Mostly Cloudy
2:53 PM 37.9 °F 28.2 °F 12.9 °F 36% 29.86 in 10.0 mi West 18.4 mph 29.9 mph N/A   Mostly Cloudy
3:53 PM 37.9 °F 27.9 °F 12.0 °F 35% 29.85 in 10.0 mi West 19.6 mph 28.8 mph N/A   Overcast
4:53 PM 37.9 °F 26.8 °F 10.0 °F 32% 29.84 in 10.0 mi West 24.2 mph 32.2 mph N/A   Scattered Clouds
5:53 PM 37.0 °F 27.4 °F 14.0 °F 39% 29.85 in 10.0 mi NW 17.3 mph 24.2 mph N/A   Partly Cloudy
6:53 PM 32.0 °F 21.2 °F 14.0 °F 48% 29.87 in 10.0 mi NW 16.1 mph 21.9 mph N/A   Partly Cloudy
7:53 PM 30.0 °F 19.1 °F 12.9 °F 49% 29.89 in 10.0 mi WNW 15.0 mph 20.7 mph N/A   Mostly Cloudy
8:53 PM 28.9 °F 18.2 °F 12.0 °F 49% 29.91 in 10.0 mi WNW 13.8 mph - N/A   Clear
9:53 PM 26.1 °F 15.0 °F 16.0 °F 66% 29.93 in 10.0 mi WNW 12.7 mph - N/A   Clear
10:53 PM 25.0 °F 18.1 °F 17.1 °F 72% 29.93 in 10.0 mi WNW 5.8 mph - N/A   Partly Cloudy
11:53 PM 25.0 °F 19.3 °F 16.0 °F 69% 29.93 in 10.0 mi West 4.6 mph - N/A   Overcast